Location: Stara Lesna
(49.1528°N, 20.2911°E)
Time: 06:53:11
(UTC+02:00)

Meteor 2-6 Rocket - Pass Details

Date: 21 September 2019
Orbit: 806 x 914 km, 81.3° (Epoch: 20 October)

Event Time Altitude Azimuth Distance (km) Brightness Sun altitude
Exits shadow 04:11:52 25° 190° (S) 1,738 5.5 -21.4°
Maximum altitude 04:15:29 89° 103° (ESE) 915 4.3 -20.8°
Drops below altitude 10° 04:21:30 10° 12° (NNE) 2,616 7.2 -20.0°
Sets 04:24:00 0° 13° (NNE) 3,564 8.0 -19.6°
